THOR ABLESTAR DEB, 467

Orbit data source: Space-Track

THOR ABLESTAR DEB, 467 is space debris in LEO originally from a launch on Thu, 29 Jun 1961 UTC launched from the Air Force Eastern Test Range (AFETR). Debris objects in space refer to the collection of defunct objects orbiting the Earth. Examples of debris include non-operational satellites, rocket bodies, and fragments generated from explosions, collisions, or faulty payload assembly.

Loading next visibility...
Identifier
467, 1961-015FD
Orbit
LEO
Country
Flag of USUS
Related business
Manufacturer
Unknown
Mission
Spacecraft
Bus & Motor
Unknown
Mass
Unknown
Launch date (UTC)
1961-06-29 (64 years ago)
Launch vehicle
Unknown
Launch site
Air Force Eastern Test Range (AFETR)
Object type
Payload
Rocket body
Debris
Shape & HBR
Unknown shape, 0.1 m
Radar Cross Section
Small (<0.1 m²)

Expand to show TLE details & history
Last TLE update: 18 hours ago

TLE from 18 hours ago
0 THOR ABLESTAR DEB
1 00467U 61015FD  25310.12358917  .00001728  00000-0  21310-2 0  9994
2 00467  66.5569 247.8802 0234901  98.3457 264.4306 13.56558638250677
Epoch: 2025-11-06T02:57Z
TLE epoch observation values (Epoch: 2025-11-06T02:57:58.104Z)
Latitude
-0.00008°
Longitude
157.80165°
Altitude
1,071.227 km
Speed
7.307 km/s
True Right ascension
16h 31m 31s
True Declination
0° 00' 00"
Sunlit
Object was in daylight at epoch
Visualization orbit readout
Latitude
Unknown
Longitude
Unknown
Altitude
Unknown
Speed
Unknown
Apparent Right ascension
Unknown
Apparent Declination
Unknown
Sunlit
N/A
Visualization observer readout
Local Sidereal Time
17:23:04
Azimuth
Unknown
Elevation
Unknown
Doppler factor
Unknown
Orbital elements
Apogee altitude
1,221.081 km
Perigee altitude
872.262 km
Semi-major axis
7,424.808 km
Eccentricity
0.02349
Inclination
66.5569°
RAAN
247.8802°
Arg. of periapsis
98.3457°
True anomaly
261.76012°
Mean anomaly
264.4306°
Eccentric anomaly
263.09448°
Mean motion
3.39246 °/min
Orbital period
106.12 mins
BSTAR
0.002131
Loading maneuver chart data...
Computing Atmospheric mass density...

Documentation

Showing up to 5 results
|